Data supplied by UK-AIR on 27/4/2023
All Data GMT hour ending 
Status: R =Ratified P=Provisional,P*=As supplied
,,London Westminster,,,,,,,,,,,,,,,,,,,,,,,
Date,time,"Nitric oxide",status,unit,"Nitrogen dioxide",status,unit,"Nitrogen oxides as nitrogen dioxide",status,unit,"Ozone",status,unit,"PM<sub>2.5</sub> particulate matter (Hourly measured)",status,unit
 
01-01-2022,01:00,1.05001,R,ugm-3,13.79165,R,ugm-3,15.40164,R,ugm-3,,,,17.000,R,ugm-3 (BAM)
01-01-2022,02:00,0.80001,R,ugm-3,8.91211,R,ugm-3,10.13877,R,ugm-3,,,,7.000,R,ugm-3 (BAM)
01-01-2022,03:00,0.78751,R,ugm-3,7.44142,R,ugm-3,8.64891,R,ugm-3,,,,8.000,R,ugm-3 (BAM)
01-01-2022,04:00,0.67501,R,ugm-3,5.40815,R,ugm-3,6.44315,R,ugm-3,,,,12.000,R,ugm-3 (BAM)
01-01-2022,05:00,0.56251,R,ugm-3,6.68354,R,ugm-3,7.54603,R,ugm-3,,,,8.000,R,ugm-3 (BAM)
01-01-2022,06:00,0.67501,R,ugm-3,6.33690,R,ugm-3,7.37189,R,ugm-3,,,,5.000,R,ugm-3 (BAM)
01-01-2022,07:00,0.63751,R,ugm-3,7.84556,R,ugm-3,8.82305,R,ugm-3,,,,5.000,R,ugm-3 (BAM)
01-01-2022,08:00,0.90001,R,ugm-3,8.31375,R,ugm-3,9.69375,R,ugm-3,,,,6.000,R,ugm-3 (BAM)
01-01-2022,09:00,0.78751,R,ugm-3,8.89258,R,ugm-3,10.10007,R,ugm-3,,,,7.000,R,ugm-3 (BAM)
01-01-2022,10:00,1.23751,R,ugm-3,9.71179,R,ugm-3,11.60928,R,ugm-3,,,,5.000,R,ugm-3 (BAM)
01-01-2022,11:00,1.72502,R,ugm-3,8.73210,R,ugm-3,11.37709,R,ugm-3,,,,4.000,R,ugm-3 (BAM)
01-01-2022,12:00,1.61252,R,ugm-3,7.97586,R,ugm-3,10.44835,R,ugm-3,,,,10.000,R,ugm-3 (BAM)
01-01-2022,13:00,1.38751,R,ugm-3,9.07546,R,ugm-3,11.20295,R,ugm-3,,,,14.000,R,ugm-3 (BAM)
01-01-2022,14:00,1.68752,R,ugm-3,10.47295,R,ugm-3,13.06044,R,ugm-3,,,,11.000,R,ugm-3 (BAM)
01-01-2022,15:00,1.38751,R,ugm-3,9.88811,R,ugm-3,12.01560,R,ugm-3,,,,9.000,R,ugm-3 (BAM)
01-01-2022,16:00,1.20001,R,ugm-3,10.05952,R,ugm-3,11.89951,R,ugm-3,,,,8.000,R,ugm-3 (BAM)
01-01-2022,17:00,1.61252,R,ugm-3,11.74888,R,ugm-3,14.22137,R,ugm-3,,,,10.000,R,ugm-3 (BAM)
01-01-2022,18:00,1.01251,R,ugm-3,11.91427,R,ugm-3,13.46676,R,ugm-3,,,,7.000,R,ugm-3 (BAM)
01-01-2022,19:00,1.08751,R,ugm-3,12.66997,R,ugm-3,14.33746,R,ugm-3,,,,12.000,R,ugm-3 (BAM)
01-01-2022,20:00,1.20001,R,ugm-3,14.70323,R,ugm-3,16.54322,R,ugm-3,,,,13.000,R,ugm-3 (BAM)
01-01-2022,21:00,0.90001,R,ugm-3,12.20286,R,ugm-3,13.58286,R,ugm-3,,,,9.000,R,ugm-3 (BAM)
01-01-2022,22:00,0.75001,R,ugm-3,10.57538,R,ugm-3,11.72537,R,ugm-3,,,,10.000,R,ugm-3 (BAM)
01-01-2022,23:00,0.90001,R,ugm-3,9.35859,R,ugm-3,10.73858,R,ugm-3,,,,11.000,R,ugm-3 (BAM)
01-01-2022,24:00,0.63751,R,ugm-3,7.90360,R,ugm-3,8.88110,R,ugm-3,,,,7.000,R,ugm-3 (BAM)
02-01-2022,01:00,0.60014,R,ugm-3,7.28638,R,ugm-3,8.20658,R,ugm-3,,,,5.000,R,ugm-3 (BAM)
02-01-2022,02:00,0.50011,R,ugm-3,5.34939,R,ugm-3,6.11623,R,ugm-3,,,,3.000,R,ugm-3 (BAM)
02-01-2022,03:00,0.67515,R,ugm-3,4.77132,R,ugm-3,5.80654,R,ugm-3,,,,3.000,R,ugm-3 (BAM)
02-01-2022,04:00,0.63764,R,ugm-3,5.93208,R,ugm-3,6.90978,R,ugm-3,,,,4.000,R,ugm-3 (BAM)
02-01-2022,05:00,0.60014,R,ugm-3,5.06054,R,ugm-3,5.98074,R,ugm-3,,,,3.000,R,ugm-3 (BAM)
02-01-2022,06:00,0.45010,R,ugm-3,4.36155,R,ugm-3,5.05169,R,ugm-3,,,,3.000,R,ugm-3 (BAM)
02-01-2022,07:00,0.71266,R,ugm-3,3.14605,R,ugm-3,4.23878,R,ugm-3,,,,3.000,R,ugm-3 (BAM)
02-01-2022,08:00,0.90020,R,ugm-3,3.49720,R,ugm-3,4.87750,R,ugm-3,,,,1.000,R,ugm-3 (BAM)
02-01-2022,09:00,0.63764,R,ugm-3,4.01592,R,ugm-3,4.99363,R,ugm-3,,,,-1.000,R,ugm-3 (BAM)
02-01-2022,10:00,0.90020,R,ugm-3,5.47143,R,ugm-3,6.85172,R,ugm-3,,,,3.000,R,ugm-3 (BAM)
02-01-2022,11:00,1.05024,R,ugm-3,5.53171,R,ugm-3,7.14205,R,ugm-3,,,,4.000,R,ugm-3 (BAM)
02-01-2022,12:00,1.20027,R,ugm-3,6.23071,R,ugm-3,8.07109,R,ugm-3,,,,2.000,R,ugm-3 (BAM)
02-01-2022,13:00,1.20027,R,ugm-3,6.81136,R,ugm-3,8.65175,R,ugm-3,,,,1.000,R,ugm-3 (BAM)
02-01-2022,14:00,1.27529,R,ugm-3,9.13508,R,ugm-3,11.09049,R,ugm-3,,,,3.000,R,ugm-3 (BAM)
02-01-2022,15:00,0.93771,R,ugm-3,8.08493,R,ugm-3,9.52273,R,ugm-3,,,,4.000,R,ugm-3 (BAM)
02-01-2022,16:00,0.93771,R,ugm-3,7.15588,R,ugm-3,8.59368,R,ugm-3,,,,4.000,R,ugm-3 (BAM)
02-01-2022,17:00,1.53785,R,ugm-3,8.84863,R,ugm-3,11.20663,R,ugm-3,,,,4.000,R,ugm-3 (BAM)
02-01-2022,18:00,1.23778,R,ugm-3,9.94744,R,ugm-3,11.84534,R,ugm-3,,,,1.000,R,ugm-3 (BAM)
02-01-2022,19:00,1.08775,R,ugm-3,8.55166,R,ugm-3,10.21951,R,ugm-3,,,,2.000,R,ugm-3 (BAM)
02-01-2022,20:00,0.63764,R,ugm-3,6.57080,R,ugm-3,7.54850,R,ugm-3,,,,3.000,R,ugm-3 (BAM)
02-01-2022,21:00,0.93771,R,ugm-3,6.57523,R,ugm-3,8.01303,R,ugm-3,,,,1.000,R,ugm-3 (BAM)
02-01-2022,22:00,0.90020,R,ugm-3,5.81982,R,ugm-3,7.20011,R,ugm-3,,,,0.000,R,ugm-3 (BAM)
02-01-2022,23:00,0.90020,R,ugm-3,5.64562,R,ugm-3,7.02592,R,ugm-3,,,,3.000,R,ugm-3 (BAM)
02-01-2022,24:00,0.67515,R,ugm-3,4.94552,R,ugm-3,5.98074,R,ugm-3,,,,8.000,R,ugm-3 (BAM)
03-01-2022,01:00,0.65029,R,ugm-3,3.95945,R,ugm-3,4.95654,R,ugm-3,,,,9.000,R,ugm-3 (BAM)
03-01-2022,02:00,0.45020,R,ugm-3,3.10456,R,ugm-3,3.79485,R,ugm-3,,,,7.000,R,ugm-3 (BAM)
03-01-2022,03:00,0.78785,R,ugm-3,2.74173,R,ugm-3,3.94974,R,ugm-3,,,,6.000,R,ugm-3 (BAM)
03-01-2022,04:00,0.71281,R,ugm-3,2.39210,R,ugm-3,3.48507,R,ugm-3,,,,5.000,R,ugm-3 (BAM)
03-01-2022,05:00,0.75033,R,ugm-3,2.16032,R,ugm-3,3.31081,R,ugm-3,,,,6.000,R,ugm-3 (BAM)
03-01-2022,06:00,0.71281,R,ugm-3,3.32145,R,ugm-3,4.41442,R,ugm-3,,,,5.000,R,ugm-3 (BAM)
03-01-2022,07:00,0.86288,R,ugm-3,5.18239,R,ugm-3,6.50546,R,ugm-3,,,,5.000,R,ugm-3 (BAM)
03-01-2022,08:00,0.90040,R,ugm-3,6.46081,R,ugm-3,7.84140,R,ugm-3,,,,6.000,R,ugm-3 (BAM)
03-01-2022,09:00,1.05046,R,ugm-3,9.89003,R,ugm-3,11.50072,R,ugm-3,,,,4.000,R,ugm-3 (BAM)
03-01-2022,10:00,1.20053,R,ugm-3,11.80906,R,ugm-3,13.64984,R,ugm-3,,,,2.000,R,ugm-3 (BAM)
03-01-2022,11:00,1.23805,R,ugm-3,10.24134,R,ugm-3,12.13965,R,ugm-3,,,,0.000,R,ugm-3 (BAM)
03-01-2022,12:00,1.31308,R,ugm-3,10.06821,R,ugm-3,12.08157,R,ugm-3,,,,0.000,R,ugm-3 (BAM)
03-01-2022,13:00,1.72576,R,ugm-3,10.53904,R,ugm-3,13.18517,R,ugm-3,,,,3.000,R,ugm-3 (BAM)
03-01-2022,14:00,1.87583,R,ugm-3,12.74849,R,ugm-3,15.62472,R,ugm-3,,,,3.000,R,ugm-3 (BAM)
03-01-2022,15:00,1.16301,R,ugm-3,11.57616,R,ugm-3,13.35942,R,ugm-3,,,,3.000,R,ugm-3 (BAM)
03-01-2022,16:00,0.97543,R,ugm-3,12.73505,R,ugm-3,14.23069,R,ugm-3,,,,4.000,R,ugm-3 (BAM)
03-01-2022,17:00,1.91334,R,ugm-3,19.48684,R,ugm-3,22.42060,R,ugm-3,,,,3.000,R,ugm-3 (BAM)
03-01-2022,18:00,1.08798,R,ugm-3,21.33323,R,ugm-3,23.00144,R,ugm-3,,,,10.000,R,ugm-3 (BAM)
03-01-2022,19:00,1.50066,R,ugm-3,27.84485,R,ugm-3,30.14583,R,ugm-3,,,,7.000,R,ugm-3 (BAM)
03-01-2022,20:00,1.01295,R,ugm-3,23.19081,R,ugm-3,24.74397,R,ugm-3,,,,9.000,R,ugm-3 (BAM)
03-01-2022,21:00,0.97543,R,ugm-3,21.04113,R,ugm-3,22.53676,R,ugm-3,,,,9.000,R,ugm-3 (BAM)
03-01-2022,22:00,0.93791,R,ugm-3,20.80823,R,ugm-3,22.24634,R,ugm-3,,,,6.000,R,ugm-3 (BAM)
03-01-2022,23:00,0.82536,R,ugm-3,14.41726,R,ugm-3,15.68280,R,ugm-3,,,,5.000,R,ugm-3 (BAM)
03-01-2022,24:00,0.75033,R,ugm-3,12.32510,R,ugm-3,13.47559,R,ugm-3,,,,6.000,R,ugm-3 (BAM)
04-01-2022,01:00,0.95062,R,ugm-3,11.17022,R,ugm-3,12.62782,R,ugm-3,,,,3.000,R,ugm-3 (BAM)
04-01-2022,02:00,0.80053,R,ugm-3,10.78060,R,ugm-3,12.00805,R,ugm-3,,,,4.000,R,ugm-3 (BAM)
04-01-2022,03:00,0.60039,R,ugm-3,9.36372,R,ugm-3,10.28431,R,ugm-3,,,,5.000,R,ugm-3 (BAM)
04-01-2022,04:00,0.67544,R,ugm-3,7.91227,R,ugm-3,8.94794,R,ugm-3,,,,5.000,R,ugm-3 (BAM)
04-01-2022,05:00,0.71297,R,ugm-3,8.14525,R,ugm-3,9.23845,R,ugm-3,,,,6.000,R,ugm-3 (BAM)
04-01-2022,06:00,0.90059,R,ugm-3,11.11136,R,ugm-3,12.49225,R,ugm-3,,,,7.000,R,ugm-3 (BAM)
04-01-2022,07:00,1.23831,R,ugm-3,15.64853,R,ugm-3,17.54725,R,ugm-3,,,,7.000,R,ugm-3 (BAM)
04-01-2022,08:00,1.80118,R,ugm-3,24.25634,R,ugm-3,27.01811,R,ugm-3,,,,3.000,R,ugm-3 (BAM)
04-01-2022,09:00,3.52732,R,ugm-3,35.49637,R,ugm-3,40.90484,R,ugm-3,,,,3.000,R,ugm-3 (BAM)
04-01-2022,10:00,5.92889,R,ugm-3,35.47452,R,ugm-3,44.56536,R,ugm-3,,,,5.000,R,ugm-3 (BAM)
04-01-2022,11:00,3.90256,R,ugm-3,21.78961,R,ugm-3,27.77346,R,ugm-3,,,,4.000,R,ugm-3 (BAM)
04-01-2022,12:00,4.76563,R,ugm-3,23.37144,R,ugm-3,30.67863,R,ugm-3,,,,2.000,R,ugm-3 (BAM)
04-01-2022,13:00,5.89137,R,ugm-3,22.28447,R,ugm-3,31.31777,R,ugm-3,,,,0.000,R,ugm-3 (BAM)
04-01-2022,14:00,4.69058,R,ugm-3,22.49875,R,ugm-3,29.69087,R,ugm-3,,,,4.000,R,ugm-3 (BAM)
04-01-2022,15:00,5.36602,R,ugm-3,28.49361,R,ugm-3,36.72139,R,ugm-3,,,,4.000,R,ugm-3 (BAM)
04-01-2022,16:00,5.89137,R,ugm-3,35.82258,R,ugm-3,44.85588,R,ugm-3,,,,4.000,R,ugm-3 (BAM)
04-01-2022,17:00,5.59117,R,ugm-3,39.36236,R,ugm-3,47.93536,R,ugm-3,,,,5.000,R,ugm-3 (BAM)
04-01-2022,18:00,6.04147,R,ugm-3,41.11226,R,ugm-3,50.37571,R,ugm-3,,,,3.000,R,ugm-3 (BAM)
04-01-2022,19:00,5.81632,R,ugm-3,44.71127,R,ugm-3,53.62950,R,ugm-3,,,,6.000,R,ugm-3 (BAM)
04-01-2022,20:00,5.02830,R,ugm-3,52.36904,R,ugm-3,60.07899,R,ugm-3,,,,10.000,R,ugm-3 (BAM)
04-01-2022,21:00,3.75246,R,ugm-3,46.42322,R,ugm-3,52.17692,R,ugm-3,,,,6.000,R,ugm-3 (BAM)
04-01-2022,22:00,2.73930,R,ugm-3,33.45085,R,ugm-3,37.65105,R,ugm-3,,,,6.000,R,ugm-3 (BAM)
04-01-2022,23:00,1.68861,R,ugm-3,26.23016,R,ugm-3,28.81932,R,ugm-3,,,,6.000,R,ugm-3 (BAM)
04-01-2022,24:00,1.61356,R,ugm-3,19.08230,R,ugm-3,21.55639,R,ugm-3,,,,3.000,R,ugm-3 (BAM)
05-01-2022,01:00,1.25109,R,ugm-3,15.75093,R,ugm-3,17.66924,R,ugm-3,,,,0.000,R,ugm-3 (BAM)
05-01-2022,02:00,0.90079,R,ugm-3,11.48326,R,ugm-3,12.86445,R,ugm-3,,,,5.000,R,ugm-3 (BAM)
05-01-2022,03:00,1.35118,R,ugm-3,11.29640,R,ugm-3,13.36817,R,ugm-3,,,,4.000,R,ugm-3 (BAM)
05-01-2022,04:00,1.20105,R,ugm-3,10.82912,R,ugm-3,12.67071,R,ugm-3,,,,5.000,R,ugm-3 (BAM)
05-01-2022,05:00,1.46378,R,ugm-3,13.09991,R,ugm-3,15.34434,R,ugm-3,,,,5.000,R,ugm-3 (BAM)
05-01-2022,06:00,1.23858,R,ugm-3,13.61958,R,ugm-3,15.51871,R,ugm-3,,,,4.000,R,ugm-3 (BAM)
05-01-2022,07:00,2.96509,R,ugm-3,25.44481,R,ugm-3,29.99121,R,ugm-3,,,,5.000,R,ugm-3 (BAM)
05-01-2022,08:00,6.56823,R,ugm-3,42.06474,R,ugm-3,52.13588,R,ugm-3,,,,6.000,R,ugm-3 (BAM)
05-01-2022,09:00,5.40471,R,ugm-3,44.54624,R,ugm-3,52.83335,R,ugm-3,,,,8.000,R,ugm-3 (BAM)
05-01-2022,10:00,9.79604,R,ugm-3,45.31076,R,ugm-3,60.33115,R,ugm-3,,,,7.000,R,ugm-3 (BAM)
05-01-2022,11:00,12.01047,R,ugm-3,41.27600,R,ugm-3,59.69180,R,ugm-3,,,,6.000,R,ugm-3 (BAM)
05-01-2022,12:00,9.64591,R,ugm-3,32.28903,R,ugm-3,47.07922,R,ugm-3,,,,5.000,R,ugm-3 (BAM)
05-01-2022,13:00,6.15537,R,ugm-3,22.52928,R,ugm-3,31.96737,R,ugm-3,,,,5.000,R,ugm-3 (BAM)
05-01-2022,14:00,6.26797,R,ugm-3,22.76349,R,ugm-3,32.37423,R,ugm-3,,,,6.000,R,ugm-3 (BAM)
05-01-2022,15:00,6.04277,R,ugm-3,25.49180,R,ugm-3,34.75725,R,ugm-3,,,,6.000,R,ugm-3 (BAM)
05-01-2022,16:00,5.21705,R,ugm-3,31.52393,R,ugm-3,39.52330,R,ugm-3,,,,7.000,R,ugm-3 (BAM)
05-01-2022,17:00,6.90602,R,ugm-3,39.51251,R,ugm-3,50.10159,R,ugm-3,,,,10.000,R,ugm-3 (BAM)
05-01-2022,18:00,7.95694,R,ugm-3,50.33934,R,ugm-3,62.53981,R,ugm-3,,,,6.000,R,ugm-3 (BAM)
05-01-2022,19:00,15.65115,R,ugm-3,56.15283,R,ugm-3,80.15092,R,ugm-3,,,,5.000,R,ugm-3 (BAM)
05-01-2022,20:00,21.91911,R,ugm-3,63.10700,R,ugm-3,96.71584,R,ugm-3,,,,15.000,R,ugm-3 (BAM)
05-01-2022,21:00,8.51993,R,ugm-3,57.49700,R,ugm-3,70.56071,R,ugm-3,,,,10.000,R,ugm-3 (BAM)
05-01-2022,22:00,6.83096,R,ugm-3,57.41309,R,ugm-3,67.88708,R,ugm-3,,,,10.000,R,ugm-3 (BAM)
05-01-2022,23:00,9.27058,R,ugm-3,60.24022,R,ugm-3,74.45492,R,ugm-3,,,,14.000,R,ugm-3 (BAM)
05-01-2022,24:00,15.72621,R,ugm-3,60.86190,R,ugm-3,84.97509,R,ugm-3,,,,15.000,R,ugm-3 (BAM)
06-01-2022,01:00,20.67248,R,ugm-3,59.62360,R,ugm-3,91.32095,R,ugm-3,,,,19.000,R,ugm-3 (BAM)
06-01-2022,02:00,19.72144,R,ugm-3,58.13599,R,ugm-3,88.37512,R,ugm-3,,,,18.000,R,ugm-3 (BAM)
06-01-2022,03:00,15.27911,R,ugm-3,55.17969,R,ugm-3,78.60734,R,ugm-3,,,,16.000,R,ugm-3 (BAM)
06-01-2022,04:00,15.72960,R,ugm-3,54.54709,R,ugm-3,78.66548,R,ugm-3,,,,14.000,R,ugm-3 (BAM)
06-01-2022,05:00,11.93798,R,ugm-3,50.65120,R,ugm-3,68.95585,R,ugm-3,,,,11.000,R,ugm-3 (BAM)
06-01-2022,06:00,7.69587,R,ugm-3,45.93437,R,ugm-3,57.73453,R,ugm-3,,,,8.000,R,ugm-3 (BAM)
06-01-2022,07:00,4.50490,R,ugm-3,40.94306,R,ugm-3,47.85048,R,ugm-3,,,,11.000,R,ugm-3 (BAM)
06-01-2022,08:00,16.55550,R,ugm-3,51.42020,R,ugm-3,76.80495,R,ugm-3,,,,9.000,R,ugm-3 (BAM)
06-01-2022,09:00,29.43200,R,ugm-3,56.50294,R,ugm-3,101.63138,R,ugm-3,,,,8.000,R,ugm-3 (BAM)
06-01-2022,10:00,42.83408,R,ugm-3,60.31468,R,ugm-3,125.99268,R,ugm-3,,,,12.000,R,ugm-3 (BAM)
06-01-2022,11:00,28.23070,R,ugm-3,56.71696,R,ugm-3,100.00342,R,ugm-3,,,,12.000,R,ugm-3 (BAM)
06-01-2022,12:00,8.40914,R,ugm-3,44.08485,R,ugm-3,56.97869,R,ugm-3,,,,7.000,R,ugm-3 (BAM)
06-01-2022,13:00,7.02013,R,ugm-3,44.41225,R,ugm-3,55.17631,R,ugm-3,,,,7.000,R,ugm-3 (BAM)
06-01-2022,14:00,7.20784,R,ugm-3,39.18241,R,ugm-3,50.23428,R,ugm-3,,,,6.000,R,ugm-3 (BAM)
06-01-2022,15:00,8.22144,R,ugm-3,43.61682,R,ugm-3,56.22285,R,ugm-3,,,,7.000,R,ugm-3 (BAM)
06-01-2022,16:00,4.73014,R,ugm-3,38.73716,R,ugm-3,45.98995,R,ugm-3,,,,7.000,R,ugm-3 (BAM)
06-01-2022,17:00,2.06475,R,ugm-3,22.18381,R,ugm-3,25.34970,R,ugm-3,,,,2.000,R,ugm-3 (BAM)
06-01-2022,18:00,2.06475,R,ugm-3,18.34647,R,ugm-3,21.51236,R,ugm-3,,,,0.000,R,ugm-3 (BAM)
06-01-2022,19:00,1.27639,R,ugm-3,13.68297,R,ugm-3,15.64007,R,ugm-3,,,,3.000,R,ugm-3 (BAM)
06-01-2022,20:00,1.38901,R,ugm-3,12.92887,R,ugm-3,15.05865,R,ugm-3,,,,3.000,R,ugm-3 (BAM)
06-01-2022,21:00,0.93852,R,ugm-3,12.51492,R,ugm-3,13.95397,R,ugm-3,,,,3.000,R,ugm-3 (BAM)
06-01-2022,22:00,1.08868,R,ugm-3,18.15697,R,ugm-3,19.82626,R,ugm-3,,,,2.000,R,ugm-3 (BAM)
06-01-2022,23:00,1.20131,R,ugm-3,14.90278,R,ugm-3,16.74476,R,ugm-3,,,,5.000,R,ugm-3 (BAM)
06-01-2022,24:00,1.16377,R,ugm-3,10.77415,R,ugm-3,12.55857,R,ugm-3,,,,4.000,R,ugm-3 (BAM)
07-01-2022,01:00,0.75098,R,ugm-3,7.45628,R,ugm-3,8.60776,R,ugm-3,,,,4.000,R,ugm-3 (BAM)
07-01-2022,02:00,0.80104,R,ugm-3,5.75102,R,ugm-3,6.97927,R,ugm-3,,,,3.000,R,ugm-3 (BAM)
07-01-2022,03:00,0.67588,R,ugm-3,5.47765,R,ugm-3,6.51398,R,ugm-3,,,,5.000,R,ugm-3 (BAM)
07-01-2022,04:00,0.82608,R,ugm-3,6.11976,R,ugm-3,7.38639,R,ugm-3,,,,3.000,R,ugm-3 (BAM)
07-01-2022,05:00,0.86363,R,ugm-3,6.41115,R,ugm-3,7.73535,R,ugm-3,,,,0.000,R,ugm-3 (BAM)
07-01-2022,06:00,0.97627,R,ugm-3,5.83130,R,ugm-3,7.32823,R,ugm-3,,,,1.000,R,ugm-3 (BAM)
07-01-2022,07:00,0.93872,R,ugm-3,10.94884,R,ugm-3,12.38820,R,ugm-3,,,,1.000,R,ugm-3 (BAM)
07-01-2022,08:00,1.57706,R,ugm-3,16.89119,R,ugm-3,19.30930,R,ugm-3,,,,3.000,R,ugm-3 (BAM)
07-01-2022,09:00,1.95254,R,ugm-3,25.56297,R,ugm-3,28.55683,R,ugm-3,,,,1.000,R,ugm-3 (BAM)
07-01-2022,10:00,2.51578,R,ugm-3,22.60558,R,ugm-3,26.46305,R,ugm-3,,,,3.000,R,ugm-3 (BAM)
07-01-2022,11:00,3.86754,R,ugm-3,19.54418,R,ugm-3,25.47432,R,ugm-3,,,,2.000,R,ugm-3 (BAM)
07-01-2022,12:00,7.81018,R,ugm-3,23.79331,R,ugm-3,35.76874,R,ugm-3,,,,1.000,R,ugm-3 (BAM)
07-01-2022,13:00,6.79635,R,ugm-3,26.22022,R,ugm-3,36.64115,R,ugm-3,,,,3.000,R,ugm-3 (BAM)
07-01-2022,14:00,4.05528,R,ugm-3,24.66524,R,ugm-3,30.88325,R,ugm-3,,,,8.000,R,ugm-3 (BAM)
07-01-2022,15:00,2.36558,R,ugm-3,21.84715,R,ugm-3,25.47432,R,ugm-3,,,,5.000,R,ugm-3 (BAM)
07-01-2022,16:00,5.36949,R,ugm-3,25.84897,R,ugm-3,34.08208,R,ugm-3,,,,3.000,R,ugm-3 (BAM)
07-01-2022,17:00,3.07901,R,ugm-3,21.56748,R,ugm-3,26.28857,R,ugm-3,,,,2.000,R,ugm-3 (BAM)
07-01-2022,18:00,2.32803,R,ugm-3,21.49760,R,ugm-3,25.06720,R,ugm-3,,,,2.000,R,ugm-3 (BAM)
07-01-2022,19:00,5.55724,R,ugm-3,37.13505,R,ugm-3,45.65603,R,ugm-3,,,,5.000,R,ugm-3 (BAM)
07-01-2022,20:00,1.91500,R,ugm-3,39.05563,R,ugm-3,41.99192,R,ugm-3,,,,5.000,R,ugm-3 (BAM)
07-01-2022,21:00,1.95254,R,ugm-3,46.32629,R,ugm-3,49.32015,R,ugm-3,,,,10.000,R,ugm-3 (BAM)
07-01-2022,22:00,2.40313,R,ugm-3,40.92439,R,ugm-3,44.60914,R,ugm-3,,,,9.000,R,ugm-3 (BAM)
07-01-2022,23:00,1.68970,R,ugm-3,40.73877,R,ugm-3,43.32961,R,ugm-3,,,,11.000,R,ugm-3 (BAM)
07-01-2022,24:00,1.50196,R,ugm-3,34.28002,R,ugm-3,36.58299,R,ugm-3,,,,10.000,R,ugm-3 (BAM)
08-01-2022,01:00,1.50228,R,ugm-3,30.12195,R,ugm-3,32.42542,R,ugm-3,,,,12.000,R,ugm-3 (BAM)
08-01-2022,02:00,1.55236,R,ugm-3,22.36547,R,ugm-3,24.74571,R,ugm-3,,,,9.000,R,ugm-3 (BAM)
08-01-2022,03:00,1.05160,R,ugm-3,21.36851,R,ugm-3,22.98093,R,ugm-3,,,,7.000,R,ugm-3 (BAM)
08-01-2022,04:00,1.05160,R,ugm-3,18.92497,R,ugm-3,20.53739,R,ugm-3,,,,6.000,R,ugm-3 (BAM)
08-01-2022,05:00,1.01404,R,ugm-3,19.85525,R,ugm-3,21.41008,R,ugm-3,,,,3.000,R,ugm-3 (BAM)
08-01-2022,06:00,0.86381,R,ugm-3,19.91105,R,ugm-3,21.23555,R,ugm-3,,,,0.000,R,ugm-3 (BAM)
08-01-2022,07:00,1.20183,R,ugm-3,21.19634,R,ugm-3,23.03911,R,ugm-3,,,,-2.000,R,ugm-3 (BAM)
08-01-2022,08:00,1.23938,R,ugm-3,24.68771,R,ugm-3,26.58807,R,ugm-3,,,,3.000,R,ugm-3 (BAM)
08-01-2022,09:00,1.84029,R,ugm-3,25.27899,R,ugm-3,28.10074,R,ugm-3,,,,2.000,R,ugm-3 (BAM)
08-01-2022,10:00,1.72762,R,ugm-3,24.52088,R,ugm-3,27.16986,R,ugm-3,,,,3.000,R,ugm-3 (BAM)
08-01-2022,11:00,1.53984,R,ugm-3,18.35088,R,ugm-3,20.71193,R,ugm-3,,,,3.000,R,ugm-3 (BAM)
08-01-2022,12:00,1.20183,R,ugm-3,17.06559,R,ugm-3,18.90836,R,ugm-3,,,,1.000,R,ugm-3 (BAM)
08-01-2022,13:00,1.57739,R,ugm-3,15.26795,R,ugm-3,17.68659,R,ugm-3,,,,1.000,R,ugm-3 (BAM)
08-01-2022,14:00,1.42717,R,ugm-3,16.25463,R,ugm-3,18.44293,R,ugm-3,,,,0.000,R,ugm-3 (BAM)
08-01-2022,15:00,1.35205,R,ugm-3,17.59158,R,ugm-3,19.66470,R,ugm-3,,,,0.000,R,ugm-3 (BAM)
08-01-2022,16:00,2.29098,R,ugm-3,20.98082,R,ugm-3,24.49360,R,ugm-3,,,,0.000,R,ugm-3 (BAM)
08-01-2022,17:00,3.34257,R,ugm-3,28.61895,R,ugm-3,33.74416,R,ugm-3,,,,2.000,R,ugm-3 (BAM)
08-01-2022,18:00,4.65707,R,ugm-3,36.66848,R,ugm-3,43.80922,R,ugm-3,,,,4.000,R,ugm-3 (BAM)
08-01-2022,19:00,3.41769,R,ugm-3,39.96515,R,ugm-3,45.20553,R,ugm-3,,,,5.000,R,ugm-3 (BAM)
08-01-2022,20:00,2.32853,R,ugm-3,29.01019,R,ugm-3,32.58056,R,ugm-3,,,,6.000,R,ugm-3 (BAM)
08-01-2022,21:00,1.50228,R,ugm-3,13.28866,R,ugm-3,15.59213,R,ugm-3,,,,5.000,R,ugm-3 (BAM)
08-01-2022,22:00,1.57739,R,ugm-3,16.19883,R,ugm-3,18.61747,R,ugm-3,,,,4.000,R,ugm-3 (BAM)
08-01-2022,23:00,1.76518,R,ugm-3,16.72541,R,ugm-3,19.43198,R,ugm-3,,,,1.000,R,ugm-3 (BAM)
08-01-2022,24:00,1.38961,R,ugm-3,20.90841,R,ugm-3,23.03911,R,ugm-3,,,,3.000,R,ugm-3 (BAM)
09-01-2022,01:00,1.05182,R,ugm-3,14.37244,R,ugm-3,15.98522,R,ugm-3,,,,7.000,R,ugm-3 (BAM)
09-01-2022,02:00,1.15200,R,ugm-3,11.89090,R,ugm-3,13.65727,R,ugm-3,,,,6.000,R,ugm-3 (BAM)
09-01-2022,03:00,0.78887,R,ugm-3,11.01213,R,ugm-3,12.22171,R,ugm-3,,,,2.000,R,ugm-3 (BAM)
09-01-2022,04:00,0.93913,R,ugm-3,8.74478,R,ugm-3,10.18476,R,ugm-3,,,,2.000,R,ugm-3 (BAM)
09-01-2022,05:00,0.97669,R,ugm-3,8.80358,R,ugm-3,10.30115,R,ugm-3,,,,4.000,R,ugm-3 (BAM)
09-01-2022,06:00,0.97669,R,ugm-3,8.80358,R,ugm-3,10.30115,R,ugm-3,,,,3.000,R,ugm-3 (BAM)
09-01-2022,07:00,1.38991,R,ugm-3,13.23327,R,ugm-3,15.36443,R,ugm-3,,,,2.000,R,ugm-3 (BAM)
09-01-2022,08:00,1.27721,R,ugm-3,16.37419,R,ugm-3,18.33256,R,ugm-3,,,,2.000,R,ugm-3 (BAM)
09-01-2022,09:00,1.61530,R,ugm-3,19.75511,R,ugm-3,22.23187,R,ugm-3,,,,3.000,R,ugm-3 (BAM)
09-01-2022,10:00,3.00521,R,ugm-3,20.41748,R,ugm-3,25.02540,R,ugm-3,,,,3.000,R,ugm-3 (BAM)
09-01-2022,11:00,3.90677,R,ugm-3,21.47944,R,ugm-3,27.46974,R,ugm-3,,,,3.000,R,ugm-3 (BAM)
09-01-2022,12:00,5.74746,R,ugm-3,25.99012,R,ugm-3,34.80277,R,ugm-3,,,,8.000,R,ugm-3 (BAM)
09-01-2022,13:00,4.88346,R,ugm-3,23.35739,R,ugm-3,30.84526,R,ugm-3,,,,6.000,R,ugm-3 (BAM)
09-01-2022,14:00,3.23060,R,ugm-3,19.08251,R,ugm-3,24.03602,R,ugm-3,,,,4.000,R,ugm-3 (BAM)
09-01-2022,15:00,3.26816,R,ugm-3,22.69142,R,ugm-3,27.70254,R,ugm-3,,,,3.000,R,ugm-3 (BAM)
09-01-2022,16:00,2.32904,R,ugm-3,26.11015,R,ugm-3,29.68129,R,ugm-3,,,,2.000,R,ugm-3 (BAM)
09-01-2022,17:00,1.99095,R,ugm-3,33.78697,R,ugm-3,36.83972,R,ugm-3,,,,2.000,R,ugm-3 (BAM)
09-01-2022,18:00,2.25391,R,ugm-3,52.24012,R,ugm-3,55.69606,R,ugm-3,,,,11.000,R,ugm-3 (BAM)
09-01-2022,19:00,3.26816,R,ugm-3,59.35654,R,ugm-3,64.36766,R,ugm-3,,,,16.000,R,ugm-3 (BAM)
09-01-2022,20:00,7.17494,R,ugm-3,69.77825,R,ugm-3,80.77966,R,ugm-3,,,,18.000,R,ugm-3 (BAM)
09-01-2022,21:00,8.63997,R,ugm-3,71.95498,R,ugm-3,85.20276,R,ugm-3,,,,19.000,R,ugm-3 (BAM)
09-01-2022,22:00,5.37181,R,ugm-3,62.47464,R,ugm-3,70.71130,R,ugm-3,,,,14.000,R,ugm-3 (BAM)
09-01-2022,23:00,2.29147,R,ugm-3,52.35712,R,ugm-3,55.87066,R,ugm-3,,,,14.000,R,ugm-3 (BAM)
09-01-2022,24:00,1.61530,R,ugm-3,49.78559,R,ugm-3,52.26235,R,ugm-3,,,,15.000,R,ugm-3 (BAM)
10-01-2022,01:00,3.10605,R,ugm-3,53.37746,R,ugm-3,58.14001,R,ugm-3,,,,15.000,R,ugm-3 (BAM)
10-01-2022,02:00,3.60703,R,ugm-3,54.39465,R,ugm-3,59.92535,R,ugm-3,,,,17.000,R,ugm-3 (BAM)
10-01-2022,03:00,3.23130,R,ugm-3,52.27335,R,ugm-3,57.22793,R,ugm-3,,,,14.000,R,ugm-3 (BAM)
10-01-2022,04:00,1.91623,R,ugm-3,47.71116,R,ugm-3,50.64934,R,ugm-3,,,,11.000,R,ugm-3 (BAM)
10-01-2022,05:00,2.51740,R,ugm-3,48.94342,R,ugm-3,52.80339,R,ugm-3,,,,15.000,R,ugm-3 (BAM)
10-01-2022,06:00,21.49187,R,ugm-3,56.52676,R,ugm-3,89.48050,R,ugm-3,,,,10.000,R,ugm-3 (BAM)
10-01-2022,07:00,36.82173,R,ugm-3,62.13011,R,ugm-3,118.58931,R,ugm-3,,,,12.000,R,ugm-3 (BAM)
10-01-2022,08:00,62.78481,R,ugm-3,63.77156,R,ugm-3,160.04027,R,ugm-3,,,,12.000,R,ugm-3 (BAM)
10-01-2022,09:00,71.42665,R,ugm-3,64.14386,R,ugm-3,173.66319,R,ugm-3,,,,14.000,R,ugm-3 (BAM)
10-01-2022,10:00,74.35736,R,ugm-3,66.22876,R,ugm-3,180.24178,R,ugm-3,,,,15.000,R,ugm-3 (BAM)
10-01-2022,11:00,61.84548,R,ugm-3,73.53697,R,ugm-3,168.36539,R,ugm-3,,,,14.000,R,ugm-3 (BAM)
10-01-2022,12:00,56.69796,R,ugm-3,72.92996,R,ugm-3,159.86561,R,ugm-3,,,,12.000,R,ugm-3 (BAM)
10-01-2022,13:00,45.72658,R,ugm-3,71.47216,R,ugm-3,141.58528,R,ugm-3,,,,17.000,R,ugm-3 (BAM)
10-01-2022,14:00,39.63972,R,ugm-3,70.09317,R,ugm-3,130.87323,R,ugm-3,,,,17.000,R,ugm-3 (BAM)
10-01-2022,15:00,11.68526,R,ugm-3,54.33092,R,ugm-3,72.24808,R,ugm-3,,,,9.000,R,ugm-3 (BAM)
10-01-2022,16:00,6.27472,R,ugm-3,49.52800,R,ugm-3,59.14911,R,ugm-3,,,,12.000,R,ugm-3 (BAM)
10-01-2022,17:00,9.35573,R,ugm-3,58.89253,R,ugm-3,73.23778,R,ugm-3,,,,9.000,R,ugm-3 (BAM)
10-01-2022,18:00,5.56083,R,ugm-3,53.88281,R,ugm-3,62.40930,R,ugm-3,,,,12.000,R,ugm-3 (BAM)
10-01-2022,19:00,4.62150,R,ugm-3,51.13142,R,ugm-3,58.21763,R,ugm-3,,,,12.000,R,ugm-3 (BAM)
10-01-2022,20:00,5.26025,R,ugm-3,55.97379,R,ugm-3,64.03939,R,ugm-3,,,,13.000,R,ugm-3 (BAM)
10-01-2022,21:00,2.70527,R,ugm-3,40.38846,R,ugm-3,44.53649,R,ugm-3,,,,14.000,R,ugm-3 (BAM)
10-01-2022,22:00,2.10410,R,ugm-3,34.20770,R,ugm-3,37.43394,R,ugm-3,,,,18.000,R,ugm-3 (BAM)
10-01-2022,23:00,1.12720,R,ugm-3,22.60663,R,ugm-3,24.33497,R,ugm-3,,,,12.000,R,ugm-3 (BAM)
10-01-2022,24:00,1.46535,R,ugm-3,18.18754,R,ugm-3,20.43439,R,ugm-3,,,,13.000,R,ugm-3 (BAM)
11-01-2022,01:00,1.00217,R,ugm-3,15.23552,R,ugm-3,16.77216,R,ugm-3,,,,16.000,R,ugm-3 (BAM)
11-01-2022,02:00,0.75163,R,ugm-3,15.15379,R,ugm-3,16.30626,R,ugm-3,,,,11.000,R,ugm-3 (BAM)
11-01-2022,03:00,0.67646,R,ugm-3,13.46370,R,ugm-3,14.50093,R,ugm-3,,,,12.000,R,ugm-3 (BAM)
11-01-2022,04:00,0.82679,R,ugm-3,10.43784,R,ugm-3,11.70557,R,ugm-3,,,,9.000,R,ugm-3 (BAM)
11-01-2022,05:00,0.71404,R,ugm-3,8.74714,R,ugm-3,9.84200,R,ugm-3,,,,7.000,R,ugm-3 (BAM)
11-01-2022,06:00,0.90195,R,ugm-3,13.05972,R,ugm-3,14.44269,R,ugm-3,,,,7.000,R,ugm-3 (BAM)
11-01-2022,07:00,1.80390,R,ugm-3,24.19763,R,ugm-3,26.96357,R,ugm-3,,,,7.000,R,ugm-3 (BAM)
11-01-2022,08:00,3.34474,R,ugm-3,38.08308,R,ugm-3,43.21160,R,ugm-3,,,,6.000,R,ugm-3 (BAM)
11-01-2022,09:00,5.41171,R,ugm-3,46.15344,R,ugm-3,54.45128,R,ugm-3,,,,5.000,R,ugm-3 (BAM)
11-01-2022,10:00,7.02770,R,ugm-3,44.19975,R,ugm-3,54.97541,R,ugm-3,,,,5.000,R,ugm-3 (BAM)
11-01-2022,11:00,2.81860,R,ugm-3,25.67009,R,ugm-3,29.99188,R,ugm-3,,,,4.000,R,ugm-3 (BAM)
11-01-2022,12:00,5.11106,R,ugm-3,32.75411,R,ugm-3,40.59095,R,ugm-3,,,,8.000,R,ugm-3 (BAM)
11-01-2022,13:00,3.72055,R,ugm-3,29.12076,R,ugm-3,34.82552,R,ugm-3,,,,8.000,R,ugm-3 (BAM)
11-01-2022,14:00,4.13394,R,ugm-3,30.52518,R,ugm-3,36.86381,R,ugm-3,,,,10.000,R,ugm-3 (BAM)
11-01-2022,15:00,4.77283,R,ugm-3,37.58224,R,ugm-3,44.90046,R,ugm-3,,,,8.000,R,ugm-3 (BAM)
11-01-2022,16:00,4.05878,R,ugm-3,42.63718,R,ugm-3,48.86056,R,ugm-3,,,,10.000,R,ugm-3 (BAM)
11-01-2022,17:00,14.09299,R,ugm-3,54.21519,R,ugm-3,75.82413,R,ugm-3,,,,8.000,R,ugm-3 (BAM)
11-01-2022,18:00,26.45723,R,ugm-3,54.06738,R,ugm-3,94.63457,R,ugm-3,,,,7.000,R,ugm-3 (BAM)
11-01-2022,19:00,6.12575,R,ugm-3,41.68086,R,ugm-3,51.07355,R,ugm-3,,,,10.000,R,ugm-3 (BAM)
11-01-2022,20:00,3.26957,R,ugm-3,35.63591,R,ugm-3,40.64919,R,ugm-3,,,,12.000,R,ugm-3 (BAM)
11-01-2022,21:00,2.51795,R,ugm-3,35.56542,R,ugm-3,39.42622,R,ugm-3,,,,17.000,R,ugm-3 (BAM)
11-01-2022,22:00,2.74343,R,ugm-3,34.28789,R,ugm-3,38.49443,R,ugm-3,,,,15.000,R,ugm-3 (BAM)